Location: Clatteringshaws Loch
(55.0508°N, 4.2860°W)
Time: 23:18:51
(UTC+01:00)

Daily predictions for brighter satellites

Satellite Brightness Start Highest point End
(mag) Time Altitude Azimuth Time Altitude Azimuth Time Altitude Azimuth
Cosmos 2123 Rocket 4.4 20:52:39 10° NNW 20:58:49 69° W 21:04:56 10° S
Cosmos 1898 Rocket 3.6 20:54:07 10° NNW 20:59:29 87° WSW 21:04:46 10° SSE
USA 215 3.4 20:55:02 10° E 21:01:36 85° NNE 21:08:11 10° WNW
Cosmos 1125 Rocket 4.4 21:00:36 10° NNW 21:05:25 36° NE 21:10:12 10° ESE
Cosmos 1953 Rocket 4.4 21:01:47 10° N 21:05:54 36° ENE 21:10:02 10° SE
Cosmos 1939 Rocket 3.0 21:03:49 10° SSE 21:07:56 63° ENE 21:12:05 10° N
SPOT 5 3.4 21:03:45 10° SE 21:08:26 44° ENE 21:12:55 10° N
Cosmos 1500 3.8 21:05:41 10° SSE 21:09:09 36° E 21:12:40 10° NNE
Cosmos 1340 3.1 21:09:36 10° N 21:13:16 44° ENE 21:16:56 10° SE
Cosmos 1626 Rocket 4.0 21:08:54 10° NNW 21:13:19 66° W 21:17:39 10° S
YAOGAN 11 4.2 21:10:14 10° SSE 21:14:45 85° WSW 21:19:13 10° NNW
H-2A R/B 2.2 21:12:52 10° SE 21:16:53 55° ENE 21:21:00 10° N
EO 1 Delta rocket 4.0 21:12:51 10° N 21:17:29 85° WNW 21:22:30 10° SSW
Cosmos 2278 Rocket 4.5 21:14:16 10° NNW 21:17:53 17° N 21:21:29 10° NE
Cosmos 1459 Rocket 4.3 21:12:51 10° SSE 21:18:31 44° E 21:24:17 10° NNE
Cosmos 1602 Rocket 4.4 21:18:07 10° NNW 21:22:31 55° W 21:26:51 10° S
Cosmos 468 Rocket 4.4 21:17:59 10° S 21:22:40 38° ESE 21:27:25 10° NE
ATLAS CENTAUR R/B 3.0 21:18:49 10° WSW 21:23:37 46° NNW 21:28:12 10° NE
Cosmos 1066 Rocket 4.3 21:18:27 10° NNW 21:24:06 85° WSW 21:29:52 10° S
YAOGAN 6 3.3 21:20:52 11° SE 21:24:11 39° ENE 21:27:42 10° N
Cosmos 1758 Rocket 4.0 21:20:35 10° N 21:24:49 44° ENE 21:28:47 11° SE
Cosmos 1455 Rocket 3.7 21:20:48 10° SSW 21:25:05 59° WNW 21:29:27 10° N
Cosmos 1515 4.2 21:21:27 10° NNW 21:25:17 61° W 21:29:04 10° S
deb Chang Zheng 4 4.5 21:22:04 10° NNE 21:26:03 31° E 21:30:00 10° SSE
Cosmos 405 Rocket 4.4 21:24:03 10° NNE 21:26:50 19° ENE 21:29:08 12° ESE
RESURS DK-1 2.9 21:24:04 10° NW 21:28:10 57° WSW 21:32:14 10° SSE
Cosmos 1814 Rocket 4.5 21:27:58 10° S 21:32:55 40° ESE 21:37:50 10° NE
Cosmos 1697 Rocket 3.0 21:28:12 10° S 21:33:29 42° ESE 21:38:46 10° NE
Cosmos 1153 Rocket 4.5 21:30:15 10° S 21:36:26 86° E 21:42:36 10° NNE
PSLV R/B 3.6 21:36:21 16° SE 21:38:29 43° ENE 21:41:27 10° N
Terra 3.2 21:35:52 12° ESE 21:39:08 24° ENE 21:42:56 10° N
NOSS 7 (E) 4.3 21:35:55 10° SW 21:39:14 72° SE 21:42:55 10° NE
Cosmos 2278 3.8 21:34:39 10° SSW 21:40:22 86° NW 21:46:08 10° NNE
SL-16 R/B 3.8 21:40:53 14° ESE 21:42:06 14° E 21:45:03 10° ENE
Cosmos 1844 Rocket 4.5 21:40:09 10° NNW 21:44:28 22° NNE 21:48:46 10° ENE
NOAA 11 4.5 21:40:38 13° SE 21:45:19 54° ENE 21:50:39 10° N
Cosmos 1743 2.9 21:42:15 10° S 21:46:04 52° E 21:49:54 10° NNE
NOSS 7 (H) 4.5 21:45:22 10° SSW 21:48:39 58° SE 21:52:27 10° NE
ASTEX 1 3.7 21:44:33 10° NNE 21:49:27 50° E 21:54:07 11° SSE
CZ-4 SHROUD 3.3 21:49:04 20° SE 21:50:57 55° ENE 21:53:59 10° N
Cosmos 1802 Rocket 4.1 21:45:20 10° S 21:51:38 63° E 21:58:00 10° NNE
Cosmos 372 Rocket 4.4 21:46:52 10° NNW 21:51:50 47° NE 21:55:25 18° ESE
ARGOS 3.3 21:48:57 15° SE 21:53:21 60° ENE 21:58:42 10° N
Cosmos 2369 3.9 21:48:44 10° SW 21:54:26 78° NW 22:00:12 10° NNE
Cosmos 2058 Rocket 3.7 21:53:16 16° SSE 21:56:23 37° E 22:00:34 10° NNE
Cosmos 1980 Rocket 2.6 21:51:11 10° S 21:56:27 40° ESE 22:01:45 10° NE
Cosmos 1606 Rocket 3.6 21:59:14 10° S 22:03:34 61° E 22:07:59 10° NNE
Cosmos 2016 Rocket 4.0 21:59:02 10° S 22:05:06 66° E 22:11:17 10° NNE
Envisat 3.8 22:01:11 10° S 22:06:06 50° W 22:11:05 10° NNW
Cosmos 1842 3.2 22:02:21 10° N 22:06:19 85° ENE 22:09:01 19° SSE
Meteor 2-5 Rocket 4.4 22:01:48 10° N 22:07:27 42° ENE 22:11:03 21° SE
MetOp-B 4.3 22:03:33 12° SSE 22:08:35 77° WSW 22:13:58 10° NNW
Cosmos 1975 4.3 22:04:58 10° SW 22:08:52 41° WNW 22:12:48 10° N
CARTOSAT-1 4.3 22:13:13 24° ESE 22:15:18 39° ENE 22:19:21 10° N
Cosmos 2263 Rocket 2.3 22:11:26 10° NNW 22:17:00 65° NE 22:20:25 24° SE
Cosmos 1707 4.0 22:13:53 10° N 22:17:20 28° ENE 22:18:33 23° E
Cosmos 2173 Rocket 4.1 22:11:15 10° SSW 22:17:37 84° W 22:23:59 10° N
H-2A R/B 2.2 22:15:56 24° SE 22:18:45 53° ENE 22:23:33 10° N
CZ-4B R/B 3.9 22:14:42 10° NNE 22:19:08 38° E 22:21:17 25° SSE
Cosmos 1656 3.8 22:16:42 10° SW 22:22:19 80° NW 22:27:53 10° NNE
Cosmos 1726 Rocket 3.5 22:23:12 13° S 22:27:07 84° E 22:31:35 10° NNE
Cosmos 2322 Rocket 2.9 22:27:23 26° SE 22:29:10 31° ESE 22:34:03 10° NE
Cosmos 2100 Rocket 4.4 22:24:49 10° SSW 22:31:03 66° WNW 22:37:16 10° N
Tsikada Rocket 4.1 22:25:16 10° NNW 22:31:44 81° W 22:36:49 17° S
Cosmos 1864 Rocket 4.4 22:27:54 15° S 22:33:06 70° E 22:39:14 10° NNE
Cosmos 1666 2.5 22:31:33 25° S 22:33:41 80° E 22:37:31 10° NNE
Cosmos 2098 Rocket 3.8 22:27:34 10° S 22:34:16 78° E 22:39:37 10° NNE
Lacrosse 5 4.0 22:32:22 10° W 22:35:25 16° SW 22:38:28 10° SSW
Cosmos 1812 Rocket 4.4 22:35:28 29° ESE 22:36:10 31° E 22:40:01 10° NNE
Cosmos 2061 Rocket 4.4 22:31:20 10° SSW 22:37:35 65° WNW 22:43:48 10° N
SPOT 1/Viking Rocket 3.9 22:34:10 19° S 22:37:59 64° WSW 22:43:10 10° NNW
Cosmos 2360 4.3 22:34:26 10° SSW 22:40:01 58° ESE 22:45:39 10° NE
Meteor 2-9 Rocket 4.0 22:36:04 16° S 22:40:34 76° E 22:45:58 10° NNE
SL-08 RB Rocket 3.9 22:39:14 25° S 22:41:58 72° WSW 22:46:37 10° NNW
USA 215 3.5 22:41:12 26° SE 22:44:55 57° SW 22:51:22 10° WNW
SPOT 5 4.3 22:42:06 10° SSW 22:46:37 34° W 22:50:58 10° NNW
Cosmos 2346 Rocket 4.4 22:40:21 10° N 22:46:39 78° ENE 22:50:08 28° SSE
Cosmos 1125 Rocket 4.0 22:42:40 10° NW 22:47:44 52° WSW 22:50:43 24° S
Cosmos 1763 Rocket 3.3 22:43:42 10° SSW 22:48:48 86° ESE 22:53:54 10° NNE
H-2A R/B 4.1 22:50:04 10° SW 22:53:15 22° W 22:56:31 10° NW
Cosmos 1441 Rocket 3.7 22:51:42 10° N 22:55:33 45° ENE 22:56:13 41° E
IGS 5A 3.4 22:55:16 44° SSE 22:56:31 77° ENE 23:00:41 10° NNW
Cosmos 332 Rocket 4.1 23:00:02 40° SE 23:01:04 47° ESE 23:05:47 10° NE
Landsat 7 4.0 22:58:57 31° S 23:01:10 68° WSW 23:05:57 10° NNW
Cosmos 405 Rocket 3.1 22:59:34 10° NNW 23:03:18 55° W 23:04:22 39° SSW
ATLAS CENTAUR R/B 3.8 22:59:36 10° WNW 23:03:42 26° N 23:07:38 10° NE
Cosmos 2278 Rocket 3.6 22:58:51 10° NNW 23:03:52 30° NE 23:07:34 16° E
Cosmos 1725 Rocket 4.1 22:58:59 13° SSW 23:04:39 76° WNW 23:10:58 10° N
SL-19 R/B 4.2 22:59:14 10° NNE 23:04:52 83° WNW 23:09:12 16° SSW
Cosmos 371 Rocket 3.9 23:04:46 36° ESE 23:04:55 36° ESE 23:09:21 10° NE
Cosmos 2228 3.1 23:04:04 29° SSW 23:06:13 74° WNW 23:10:32 10° N
Genesis I 3.2 23:02:30 10° NW 23:06:29 72° SW 23:07:06 58° S
GP-B 3.0 23:02:15 10° N 23:06:44 70° E 23:07:52 48° SSE
Cosmos 841 Rocket 3.6 23:05:59 10° SSW 23:11:13 76° WNW 23:16:28 10° NNE
CZ-4 R/B 3.7 23:06:38 10° NNE 23:11:23 81° ESE 23:13:23 36° S
Meteor 2-17 Rocket 4.3 23:08:17 25° S 23:11:58 85° E 23:18:04 10° NNE
Okean 3 Rocket 3.5 23:08:46 10° N 23:13:12 73° ENE 23:14:10 52° SE
CZ-4C R/B 4.0 23:12:36 36° SSW 23:14:11 59° WSW 23:18:31 10° NNW
Terra 2.0 23:14:46 38° S 23:16:29 68° WSW 23:21:16 10° NNW
Cosmos 1697 Rocket 3.6 23:11:56 10° WSW 23:17:25 50° NW 23:22:57 10° NNE
Cosmos 1437 3.7 23:16:53 10° N 23:19:41 39° NE 23:19:41 39° NE
SWAS 4.3 23:19:58 43° SSW 23:21:21 80° ESE 23:25:43 10° NE
SL-16 R/B 2.1 23:22:41 34° S 23:25:11 67° ESE 23:30:50 10° NE
Cosmos 540 Rocket 3.3 23:26:13 43° S 23:27:50 71° ESE 23:32:58 10° NNE
DMSP B5D2-2 4.0 23:22:54 10° NNE 23:28:13 72° ESE 23:29:51 44° S
Cosmos 1844 4.3 23:23:29 10° NNW 23:29:04 50° NE 23:31:25 31° ESE
SAR-Lupe-2 3.4 23:29:33 89° WNW 23:29:33 89° WNW 23:33:09 10° NNW
Cosmos 1844 Rocket 3.0 23:24:00 10° NNW 23:29:32 59° NE 23:31:32 38° ESE
Cosmos 2233 Rocket 4.1 23:26:08 25° SSW 23:30:00 78° WNW 23:36:19 10° N
ALOS 2 3.8 23:29:25 28° E 23:30:13 30° ENE 23:34:03 10° N
Cosmos 1408 Rocket 3.7 23:30:52 10° N 23:35:19 60° ENE 23:35:50 55° ESE
Cosmos 1743 Rocket 4.5 23:34:13 10° N 23:38:21 36° ENE 23:38:49 35° E
Cosmos 921 Rocket 3.4 23:34:47 10° NNW 23:39:12 54° ENE 23:39:46 49° E
Cosmos 1674 4.4 23:37:15 10° NNE 23:40:13 22° ENE 23:40:13 22° ENE
Cosmos 1980 Rocket 3.0 23:34:49 10° SW 23:40:23 53° NW 23:46:00 10° NNE
Cosmos 2360 Rocket 2.6 23:40:37 41° ESE 23:40:47 41° ESE 23:46:04 10° NE
Spot 4 4.2 23:39:30 42° SSW 23:40:48 57° WSW 23:45:32 10° NNW
Cosmos 2034 Rocket 4.0 23:49:39 47° SSE 23:51:17 63° E 23:57:25 10° NNE
Cosmos 1707 3.8 23:49:45 10° NNW 23:53:22 36° W 23:53:49 35° WSW
In-Cosmos 22 4.1 23:48:27 10° NNW 23:53:57 75° ENE 23:55:12 54° SE
